Orbital Elements at Epoch 2459000.5 (2020-May-31.0) TDB
Reference: JPL 28 (heliocentric ecliptic J2000)
Element | Value | Uncertainty (1-sigma) | Units |
e | .1324771036241034 | 3.5588e-08 | |
a | 2.342008501246031 | 6.7377e-09 | au |
q | 2.03174599833793 | 8.3917e-08 | au |
i | 7.586830355483821 | 3.9581e-06 | deg |
node | 64.04126896695962 | 2.2646e-05 | deg |
peri | 305.5457135724149 | 2.6075e-05 | deg |
M | 336.8321834301119 | 1.2023e-05 | deg |
tp | 2459084.748801784417 (2020-Aug-23.24880178) | 4.3682e-05 | TDB |
period | 1309.125033466054 3.58 | 5.6493e-06 1.547e-08 | d yr |
n | .274992831698329 | 1.1867e-09 | deg/d |
Q | 2.652271004154133 | 7.6303e-09 | au |
|
| | Orbit Determination Parameters
Additional Information
|